TimeCDT,TemperatureF,Dew PointF,Humidity,Sea Level PressureIn,VisibilityMPH,Wind Direction,Wind SpeedMPH,Gust SpeedMPH,PrecipitationIn,Events,Conditions,WindDirDegrees,DateUTC
12:53 AM,69.1,64.9,87,30.00,9.0,North,4.6,-,N/A,,Clear,360,2012-10-07 05:53:00
1:53 AM,68.0,64.0,87,30.00,7.0,Calm,Calm,-,N/A,,Clear,0,2012-10-07 06:53:00
2:53 AM,66.0,64.0,93,30.00,6.0,North,3.5,-,N/A,,Clear,10,2012-10-07 07:53:00
3:53 AM,66.0,63.0,90,30.00,6.0,North,5.8,-,N/A,,Clear,360,2012-10-07 08:53:00
4:53 AM,64.9,61.0,87,30.01,9.0,North,5.8,-,N/A,,Mostly Cloudy,10,2012-10-07 09:53:00
5:16 AM,64.4,60.8,88,30.02,8.0,North,8.1,-,N/A,,Scattered Clouds,10,2012-10-07 10:16:00
5:25 AM,64.4,60.8,88,30.02,8.0,Variable,4.6,-,N/A,,Mostly Cloudy,0,2012-10-07 10:25:00
5:33 AM,64.4,60.8,88,30.02,7.0,North,5.8,-,N/A,,Mostly Cloudy,360,2012-10-07 10:33:00
5:53 AM,63.0,60.1,90,30.02,8.0,North,6.9,-,N/A,,Overcast,360,2012-10-07 10:53:00
6:53 AM,63.0,60.1,90,30.03,7.0,Variable,4.6,-,N/A,,Overcast,0,2012-10-07 11:53:00
7:53 AM,63.0,60.1,90,30.05,6.0,North,6.9,-,N/A,,Overcast,10,2012-10-07 12:53:00
8:50 AM,64.4,60.8,88,30.08,9.0,North,5.8,-,N/A,,Overcast,360,2012-10-07 13:50:00
8:53 AM,64.9,60.1,84,30.07,9.0,North,6.9,-,N/A,,Overcast,10,2012-10-07 13:53:00
9:53 AM,64.9,59.0,81,30.09,9.0,North,6.9,-,N/A,,Overcast,350,2012-10-07 14:53:00
10:41 AM,66.2,59.0,78,30.10,10.0,NNW,9.2,-,N/A,,Overcast,340,2012-10-07 15:41:00
10:53 AM,66.9,57.9,73,30.09,10.0,NNW,12.7,-,N/A,,Overcast,330,2012-10-07 15:53:00
12:53 PM,75.0,61.0,62,30.05,10.0,NNE,8.1,-,N/A,,Clear,30,2012-10-07 17:53:00
1:53 PM,77.0,62.1,60,30.01,10.0,NNE,6.9,-,N/A,,Clear,20,2012-10-07 18:53:00
2:53 PM,80.1,63.0,56,29.99,10.0,NW,10.4,19.6,N/A,,Clear,310,2012-10-07 19:53:00
3:53 PM,80.1,63.0,56,29.99,10.0,NNW,8.1,-,N/A,,Clear,330,2012-10-07 20:53:00
4:53 PM,79.0,63.0,58,29.99,10.0,NNW,9.2,-,N/A,,Partly Cloudy,330,2012-10-07 21:53:00
5:53 PM,75.0,62.1,64,30.01,10.0,North,5.8,-,N/A,,Clear,360,2012-10-07 22:53:00
6:53 PM,71.1,62.1,73,30.02,10.0,North,3.5,-,N/A,,Clear,350,2012-10-07 23:53:00
7:53 PM,68.0,60.1,76,30.05,10.0,NNW,5.8,-,N/A,,Clear,340,2012-10-08 00:53:00
8:53 PM,66.0,57.9,75,30.07,10.0,North,5.8,-,N/A,,Clear,350,2012-10-08 01:53:00
9:53 PM,63.0,57.0,81,30.08,10.0,North,8.1,-,N/A,,Clear,350,2012-10-08 02:53:00
10:53 PM,61.0,55.0,81,30.09,10.0,North,4.6,-,N/A,,Clear,10,2012-10-08 03:53:00
11:53 PM,60.1,53.1,78,30.07,10.0,Calm,Calm,-,N/A,,Clear,0,2012-10-08 04:53:00